FW0761 Weather Reports


Display with metric or nautical units.
time (UTC)temp
F
wind
direction
speed
MPH
gust
MPH
rain 1hr
in
rain 24hr
in
rain mn
in
humidity
%
barometer
mb
20260906111601 -90 292 0.0 0.0 0.00 0.13 0.13 1011.3
20260906110055 -90 292 0.0 0.0 0.00 0.13 0.13 1011.3
20260906104550 -90 288 0.0 0.0 0.00 0.13 0.13 1011.2
20260906103054 -90 284 0.0 0.0 0.00 0.13 0.13 1011.0
20260906101538 -90 284 0.0 0.0 0.00 0.13 0.13 1011.1
20260906100036 -90 284 0.0 0.0 0.00 0.13 0.13 1010.8
20260906094529 -90 283 0.0 0.0 0.00 0.13 0.13 1010.5
20260906093025 -90 283 0.0 0.0 0.00 0.13 0.13 1010.5
20260906091517 -90 283 0.0 0.0 0.00 0.13 0.13 1010.7
20260906090014 -90 283 0.0 0.0 0.00 0.13 0.13 1010.6
20260906084509 -90 281 0.0 0.0 0.00 0.13 0.13 1010.7
20260906083005 -90 281 0.0 0.0 0.00 0.13 0.13 1010.6
20260906081530 -90 281 0.0 0.0 0.00 0.13 0.13 1010.4
20260906080029 -90 281 0.0 0.0 0.00 0.13 0.13 1010.4
20260906074519 -90 281 0.0 0.0 0.00 0.13 0.13 1010.7
20260906073014 -90 281 0.0 0.0 0.00 0.13 0.13 1010.7
20260906071509 -90 281 0.0 0.0 0.00 0.13 0.13 1010.8
20260906070005 -90 281 0.0 0.0 0.00 0.13 0.13 1010.7
20260906064559 -90 281 0.0 0.0 0.00 0.13 0.13 1011.0
20260906063054 -90 281 0.0 0.0 0.00 0.13 0.13 1010.8
20260906061549 -90 281 0.0 0.0 0.00 0.13 0.13 1010.7
20260906060045 -90 277 0.0 0.0 0.00 0.13 0.13 1010.8
20260906054523 -90 272 0.0 0.0 0.00 0.13 0.13 1011.0
20260906053006 -90 272 0.0 0.0 0.00 0.13 0.13 1010.7
20260906051502 -90 272 0.0 0.0 0.00 0.13 0.13 1010.6
20260906050003 -90 272 0.0 0.0 0.00 0.13 0.13 1010.5
20260906044501 -90 272 0.0 0.0 0.00 0.13 0.13 1010.8
20260906043106 -90 273 0.0 0.0 0.00 0.13 0.13 1010.9
20260906041555 -90 273 0.0 0.0 0.00 0.13 0.13 1011.3
20260906040050 -90 275 0.0 0.0 0.00 0.13 0.13 1011.8
20260906034548 -90 279 0.0 0.0 0.00 0.13 0.13 1011.7
20260906033044 -90 286 0.0 0.0 0.00 0.13 0.13 1012.0
20260906031534 -90 286 0.0 0.0 0.00 0.13 0.13 1012.2
20260906030030 -90 286 0.0 0.0 0.00 0.13 0.13 1012.5
20260906024526 -90 286 0.0 0.0 0.00 0.13 0.13 1011.9
20260906023020 -90 286 0.0 0.0 0.00 0.13 0.13 1012.0
20260906021523 -90 286 0.0 0.0 0.00 0.13 0.13 1011.8
20260906020013 -90 292 0.0 0.0 0.00 0.13 0.13 1012.4
20260906014513 -90 292 0.0 0.0 0.00 0.13 0.13 1012.0
20260906013101 -90 294 0.0 0.0 0.00 0.13 0.13 1012.2
20260906011604 -90 297 0.0 0.0 0.00 0.13 0.13 1012.3
20260906010050 -90 300 0.0 0.0 0.00 0.13 0.13 1011.7
20260906004545 0 301 0.0 0.0 0.00 0.13 0.13 1011.2
20260906003040 0 301 0.0 0.0 0.00 0.13 0.13 1011.2
20260906001535 0 301 0.0 0.0 0.01 0.13 0.13 1011.1
20260906000029 0 301 0.0 0.0 0.13 0.13 0.13 1011.1
20260905234524 0 301 0.0 0.0 0.13 0.13 0.13 1011.1
20260905233021 0 301 0.0 0.0 0.13 0.13 0.13 1012.1
20260905231515 0 301 0.0 0.0 0.12 0.12 0.12 1012.2
20260905230009 -90 306 0.0 0.0 0.00 0.00 0.00 1012.2
20260905224513 -90 215 0.0 0.0 0.00 0.00 0.00 1011.3
20260905223059 -90 196 0.0 0.0 0.00 0.00 0.00 1010.0
20260905221559 -90 196 0.0 0.0 0.00 0.00 0.00 1010.5
20260905220049 -90 196 0.0 0.0 0.00 0.00 0.00 1010.0
20260905214544 -90 198 0.0 0.0 0.00 0.00 0.00 1009.9
20260905213040 -90 198 0.0 0.0 0.00 0.00 0.00 1009.9
20260905211538 -90 200 0.0 0.0 0.00 0.00 0.00 1010.1
20260905210002 -90 200 0.0 0.0 0.00 0.00 0.00 1009.9
20260905204558 -90 202 0.0 0.0 0.00 0.00 0.00 1009.9
20260905203051 -90 202 0.0 0.0 0.00 0.00 0.00 1009.7
20260905201546 -90 204 0.0 0.0 0.00 0.00 0.00 1010.0
20260905200047 -90 202 0.0 0.0 0.00 0.00 0.00 1009.8
20260905194541 -90 207 0.0 0.0 0.00 0.00 0.00 1010.0
20260905193034 -90 206 0.0 0.0 0.00 0.00 0.00 1010.2
20260905191536 -90 207 0.0 0.0 0.00 0.00 0.00 1010.5
20260905190122 -90 206 0.0 0.0 0.00 0.00 0.00 1010.8
20260905184522 -90 205 0.0 0.0 0.00 0.00 0.00 1011.2
20260905183010 -90 202 0.0 0.0 0.00 0.00 0.00 1011.5
20260905181506 -90 208 0.0 0.0 0.00 0.00 0.00 1011.5
20260905180001 -90 208 0.0 0.0 0.00 0.00 0.00 1011.7
20260905174557 -90 208 0.0 0.0 0.00 0.00 0.00 1011.9
20260905173049 -90 208 0.0 0.0 0.00 0.00 0.00 1012.0
20260905171550 -90 208 0.0 0.0 0.00 0.00 0.00 1012.2
20260905170040 -90 208 0.0 0.0 0.00 0.00 0.00 1012.3
20260905164536 -90 208 0.0 0.0 0.00 0.00 0.00 1012.4
20260905163002 -90 208 0.0 0.0 0.00 0.00 0.00 1012.7
20260905161557 -90 209 0.0 0.0 0.00 0.00 0.00 1012.9
20260905160023 -90 209 0.0 0.0 0.00 0.00 0.00 1013.1
20260905154517 -90 208 0.0 0.0 0.00 0.00 0.00 1013.3
20260905153011 -90 208 0.0 0.0 0.00 0.00 0.00 1013.4
20260905151512 -90 209 0.0 0.0 0.00 0.00 0.00 1013.6
20260905150005 -90 209 0.0 0.0 0.00 0.00 0.00 1013.6
20260905144514 -90 211 0.0 0.0 0.00 0.00 0.00 1013.5
20260905143034 -90 213 0.0 0.0 0.00 0.00 0.00 1013.6
20260905141547 -90 213 0.0 0.0 0.00 0.00 0.00 1013.6
20260905140004 -90 213 0.0 0.0 0.00 0.00 0.00 1013.8
20260905134503 -90 213 0.0 0.0 0.00 0.00 0.00 1013.8
20260905133100 -90 214 0.0 0.0 0.00 0.00 0.00 1013.7
20260905131616 -90 219 0.0 0.0 0.00 0.00 0.00 1013.9
20260905130100 -90 213 0.0 0.0 0.00 0.00 0.00 1013.9
20260905124559 -90 215 0.0 0.0 0.00 0.00 0.00 1013.9
20260905123029 -90 216 0.0 0.0 0.00 0.00 0.00 1013.8
20260905121531 -90 216 0.0 0.0 0.00 0.00 0.00 1014.0
20260905120024 -90 219 0.0 0.0 0.00 0.00 0.00 1013.9
20260905114522 -90 217 0.0 0.0 0.00 0.00 0.00 1013.7
20260905113015 -90 360 0.0 0.0 0.00 0.00 0.00 1013.5